Taloyoak, Nunavut

1:51 AM MDT on June 24, 2017 (GMT -0600)
Taloyoak

Weather History for CYYH - February, 2013

Change the Weather History Date:

Sunday, February 24, 2013

  Actual Average Record
Temperature  
Mean Temperature -18 °F -  
Max Temperature -9 °F -14 °F -4 °F (2001)
Min Temperature -27 °F -26 °F -43 °F (2004)
Degree Days  
Heating Degree Days 83    
Moisture  
Dew Point -22 °F    
Average Humidity 75    
Maximum Humidity 84    
Minimum Humidity 60    
Precipitation  
Precipitation 0.02 in - - ()
Sea Level Pressure  
Sea Level Pressure 30.01 in    
Wind  
Wind Speed 8 mph ()    
Max Wind Speed 13 mph    
Max Gust Speed 17 mph    
Visibility 13.2 miles    
Events Snow    
Averages and records for this station are not official NWS values.
T = Trace of Precipitation, MM = Missing Value Source: Averaged Metar Reports

Daily Weather History Graph

Daily Weather History Graph

Search for Another Location

Airport or City:

Trip Planner

Search our weather history database for the weather conditions in past years. The results will help you decide how hot, cold, wet, or windy it might be!

Date:

Astronomy

Feb. 24, 2013 Rise Set
Actual Time 8:00 AM CST 4:55 PM CST
Civil Twilight 6:58 AM CST 5:58 PM CST
Nautical Twilight 5:49 AM CST 7:07 PM CST
Astronomical Twilight 4:38 AM CST 8:18 PM CST
Moon 4:06 PM CST 7:10 AM CST
Length of Visible Light 10h 59m
Length of Day
8h 55m
Waxing Gibbous, 99% of the Moon is Illuminated
Feb 24
Waxing Gibbous
Feb 25
Full
Mar 4
Last Quarter
Mar 11
New
Mar 19
First Quarter

Hourly Weather History & Observations

Time (CST) Temp. Windchill Dew Point Humidity Pressure Visibility Wind Dir Wind Speed Gust Speed Precip Events Conditions
12:00 AM -9 °F - -13 °F 72% 29.93 in 6 mi NE 12.7 mph - - Snow Light Snow
12:00 AM -9.4 °F -28.9 °F -13.0 °F 84% 29.93 in 6.0 mi NE 11.5 mph 17.3 mph N/A Snow Light Snow
1:00 AM -9.4 °F -27.9 °F -13.0 °F 84% 29.94 in 10.0 mi NE 10.4 mph - N/A Snow Light Snow
2:00 AM -9.4 °F -27.9 °F -13.0 °F 84% 29.94 in 6.0 mi NNE 10.4 mph - N/A Snow Light Snow
3:00 AM -7.6 °F -25.7 °F -13.0 °F 77% 29.95 in 10.0 mi NNE 10.4 mph - N/A Snow Light Snow
4:00 AM -7.6 °F -25.7 °F -13.0 °F 77% 29.96 in 6.0 mi NNE 10.4 mph - N/A Snow Light Snow
5:00 AM -7.6 °F -24.6 °F -13.0 °F 77% 29.96 in 10.0 mi NNE 9.2 mph - N/A Snow Light Snow
6:00 AM -10 °F - -15 °F 70% 29.97 in 15 mi NNE 8.1 mph - - Snow Light Snow
6:00 AM -9.4 °F -25.6 °F -14.8 °F 77% 29.97 in 15.0 mi NNE 8.1 mph - N/A Snow Light Snow
7:00 AM -11.2 °F -30.1 °F -16.6 °F 77% 29.97 in 15.0 mi NNE 10.4 mph - N/A   Partly Cloudy
8:00 AM -14.8 °F -29.1 °F -20.2 °F 77% 29.98 in 15.0 mi North 5.8 mph - N/A   Partly Cloudy
9:00 AM -18.4 °F -39.1 °F -23.8 °F 76% 29.99 in 15.0 mi North 10.4 mph - N/A   Partly Cloudy
10:00 AM -18.4 °F -35.1 °F -23.8 °F 76% 30.01 in 15.0 mi NNE 6.9 mph - N/A   Partly Cloudy
11:00 AM -18.4 °F -36.6 °F -23.8 °F 76% 30.01 in 15.0 mi North 8.1 mph - N/A   Partly Cloudy
12:00 PM -17 °F - -22 °F 64% 30.01 in 15 mi North 8.1 mph - -   Partly Cloudy
12:00 PM -16.6 °F -34.4 °F -22.0 °F 76% 30.01 in 15.0 mi North 8.1 mph - N/A   Clear
1:00 PM -18.4 °F -39.1 °F -23.8 °F 76% 30.01 in 15.0 mi North 10.4 mph - N/A   Partly Cloudy
2:00 PM -18.4 °F -35.1 °F -23.8 °F 76% 30.03 in 15.0 mi North 6.9 mph - N/A   Partly Cloudy
3:00 PM -16.6 °F -29.3 °F -22.0 °F 76% 30.04 in 15.0 mi North 4.6 mph - N/A   Partly Cloudy
4:00 PM -20.2 °F -35.5 °F -25.6 °F 76% 30.05 in 15.0 mi NNE 5.8 mph - N/A   Clear
5:00 PM -22.0 °F -41.0 °F -27.4 °F 76% 30.06 in 15.0 mi North 8.1 mph - N/A   Partly Cloudy
6:00 PM -23 °F - -29 °F 60% 30.06 in 15 mi North 6.9 mph - -   Scattered Clouds
6:00 PM -23.8 °F -43.2 °F -29.2 °F 76% 30.06 in 15.0 mi North 8.1 mph - N/A   Partly Cloudy
7:00 PM -22.0 °F -37.7 °F -27.4 °F 76% 30.08 in 15.0 mi North 5.8 mph - N/A   Partly Cloudy
8:00 PM -23.8 °F -44.5 °F -29.2 °F 76% 30.08 in 15.0 mi North 9.2 mph - N/A   Clear
9:00 PM -27.4 °F -44.1 °F -32.8 °F 75% 30.08 in 15.0 mi North 5.8 mph - N/A   Clear
10:00 PM -25.6 °F -45.4 °F -31.0 °F 76% 30.08 in 15.0 mi North 8.1 mph - N/A   Clear
11:00 PM -25.6 °F -43.8 °F -32.8 °F 69% 30.08 in 15.0 mi North 6.9 mph - N/A   Clear